This is the latest recevied weather packets stored in our database for station/object NY5V. If no packets are shown the sender has not sent any weather packets the latest 10 day(s).
| Time | Temp. | Humidity | Pressure | Rain* | Wind** | Luminosity | Snow |
|---|---|---|---|---|---|---|---|
| 1777391887 | 25.56° C | 88% | 1014 hPa | 0 mm | - | 101 W/m² | - |
| 1777391285 | 25.56° C | 88% | 1014.1 hPa | 0 mm | - | 45 W/m² | - |
| 1777390684 | 25.56° C | 87% | 1013.9 hPa | 0 mm | - | 81 W/m² | - |
| 1777390082 | 25.56° C | 88% | 1014.1 hPa | 0 mm | - | 114 W/m² | - |
| 1777389481 | 25.56° C | 87% | 1013.9 hPa | 0 mm | - | 44 W/m² | - |
| 1777388877 | 25.56° C | 87% | 1013.9 hPa | 0 mm | - | 94 W/m² | - |
| 1777388275 | 26.11° C | 86% | 1013.6 hPa | 0 mm | - | 98 W/m² | - |
| 1777387672 | 26.11° C | 87% | 1013.7 hPa | 0 mm | - | 184 W/m² | - |
| 1777387069 | 25.56° C | 89% | 1013.9 hPa | 0 mm | - | 107 W/m² | - |
| 1777386468 | 25.56° C | 89% | 1013.5 hPa | 0 mm | - | 79 W/m² | - |
| 1777385867 | 25.56° C | 90% | 1013.5 hPa | 0 mm | - | 76 W/m² | - |
| 1777385262 | 25.56° C | 89% | 1013.7 hPa | 0 mm | - | 60 W/m² | - |
| 1777384661 | 25° C | 90% | 1013.6 hPa | 0 mm | - | 108 W/m² | - |
| 1777384062 | 25° C | 91% | 1013.3 hPa | 0 mm | - | 44 W/m² | - |
| 1777383461 | 24.44° C | 91% | 1013.4 hPa | 0 mm | - | 36 W/m² | - |
| 1777382860 | 24.44° C | 92% | 1013.2 hPa | 0 mm | - | 30 W/m² | - |
| 1777382257 | 24.44° C | 92% | 1013.1 hPa | 0 mm | - | 27 W/m² | - |
| 1777381653 | 24.44° C | 92% | 1013 hPa | 0 mm | - | 20 W/m² | - |
| 1777381052 | 24.44° C | 92% | 1012.6 hPa | 0 mm | - | 14 W/m² | - |
| 1777380451 | 24.44° C | 92% | 1012.6 hPa | 0 mm | - | 14 W/m² | - |
| 1777379850 | 24.44° C | 92% | 1012.5 hPa | 0 mm | - | 12 W/m² | - |
| 1777379246 | 24.44° C | 92% | 1012.8 hPa | 0 mm | - | 7 W/m² | - |
| 1777378643 | 24.44° C | 92% | 1012.8 hPa | 0 mm | - | 5 W/m² | - |
| 1777378040 | 24.44° C | 92% | 1012.4 hPa | 0 mm | - | 4 W/m² | - |
| 1777377434 | 24.44° C | 92% | 1012.8 hPa | 0 mm | - | 2 W/m² | - |
* Rain latest hour (hover to see other rain measurements)
** Current wind speed in m/s (hover to see current wind gust speed)